Погода в Сергеевке

Россия / Воронежская область     50°25′22″N   39°48′29″E
темп.,
°C
ветер,
м/с
пор.,
м/с
влажн.,
%
обл.,
%
осадки,
мм/ч
давл.,
гПа
погр.,
м
11 мая, вт
вт1100:00+11св71397100 1.4 1011799
03:00+9вюв4698100 5.6 1012398
06:00+7в4897100 5.4 1014589
09:00+8в71179100 5.5 10161269
12:00+9в81375100 0.1 10171338
15:00+8в91582100 0.4 10191323
18:00+7в101488100 0.1 10201167
21:00+7в71490100 0.3 1022881
12 мая, ср
ср1200:00+6всв6169097 0.0 1023556
03:00+7в6158297 0.0 1022452
06:00+8всв61381100 0.0 1022460
09:00+11в5872100 0.1 1021642
12:00+13вюв476540 0.5 1018968
15:00+13юв6107229 1.6 1017770
18:00+14ююв610766 1.8 1017910
21:00+9ююв229033 2.1 101821
13 мая, чт
чт1300:00+8вюв119053 0.0 101810
03:00+8всв228876 0.0 101812
06:00+10всв258850 0.0 1018133
09:00+16в456953 0.0 1017485
12:00+19юв3455100 0.0 10171236
15:00+21юв345120 0.0 10161629
18:00+20вюв35635 0.0 1016223
21:00+15в2272100 0.0 101619
14 мая, пт
пт1400:00+15в3672100 0.0 1016104
03:00+13вюв378213 0.0 1016114
06:00+14в3984100 0.0 1016187
09:00+20юв59715 0.0 1015510
12:00+25юв685799 0.0 10141211
15:00+26ююв675151 0.0 10131405
18:00+24юв5966100 0.0 1012361
21:00+19юв36845 0.0 101376
15 мая, сб
сб1500:00+17ююв2386100 0.0 101237
03:00+16юв3787100 0.0 1011113
06:00+15ю3884100 0.2 1012244
09:00+18юв4580100 1.2 1011252
12:00+24ю45654 0.3 1012967
15:00+25ю4661100 1.3 10111386
18:00+22ююв4670100 3.5 1010165
21:00+17сз22870 6.9 101220